When you browse on this site, cookies collect data to enhance your experience and personalize the content and advertising you see.
Visit our Privacy Policy to learn more. By continuing to use the site, you agree to this use of cookies and data.
  • en Suisse
  • Liste des pays
  • À 7 jours
  • Température de l'eau
  • Carte météo
  • Widgets météo
  • user-avatar
    Se connecter

    Météo par heure à Paris

    Ce jour, 3 Juin, Mercredi

    Heure Température Précipitation Vent Pression Humidité
    00:00 +19°C° 0 mm 2 m/s 754 mmHg 70%
    01:00 +18°C° 0.6 mm 2 m/s 753 mmHg 72%
    02:00 +18°C° 0.6 mm 1 m/s 752 mmHg 75%
    03:00 +18°C° 0.6 mm 1 m/s 752 mmHg 77%
    04:00 +18°C° 0.7 mm 1 m/s 752 mmHg 76%
    05:00 +18°C° 0.7 mm 1 m/s 751 mmHg 76%
    06:00 +18°C° 0 mm 2 m/s 751 mmHg 71%
    07:00 +19°C° 0.4 mm 2 m/s 751 mmHg 67%
    08:00 +20°C° 0.4 mm 2 m/s 750 mmHg 63%
    09:00 +21°C° 0.4 mm 2 m/s 750 mmHg 60%
    10:00 +23°C° 0.1 mm 2 m/s 749 mmHg 56%
    11:00 +25°C° 0.1 mm 3 m/s 749 mmHg 52%
    12:00 +26°C° 0 mm 2 m/s 749 mmHg 46%
    13:00 +26°C° 0.3 mm 2 m/s 748 mmHg 49%
    14:00 +25°C° 0.3 mm 3 m/s 748 mmHg 52%
    15:00 +25°C° 0.3 mm 3 m/s 747 mmHg 55%
    16:00 +24°C° 1 mm 3 m/s 747 mmHg 59%
    17:00 +22°C° 1 mm 4 m/s 747 mmHg 63%
    18:00 +21°C° 1 mm 4 m/s 746 mmHg 67%
    19:00 +20°C° 0.3 mm 3 m/s 746 mmHg 68%
    20:00 +19°C° 0.3 mm 3 m/s 746 mmHg 69%
    21:00 +18°C° 0.3 mm 3 m/s 746 mmHg 71%
    22:00 +17°C° 0.3 mm 3 m/s 746 mmHg 72%
    23:00 +15°C° 0.3 mm 4 m/s 746 mmHg 74%

    Demain, 4 Juin, Jeudi

    Heure Température Précipitation Vent Pression Humidité
    00:00 +15°C° 0.3 mm 4 m/s 746 mmHg 76%
    01:00 +14°C° 0.1 mm 4 m/s 745 mmHg 78%
    02:00 +14°C° 0.1 mm 3 m/s 745 mmHg 80%
    03:00 +13°C° 0.1 mm 3 m/s 745 mmHg 82%
    04:00 +13°C° 0.1 mm 3 m/s 745 mmHg 82%
    05:00 +13°C° 0.1 mm 3 m/s 745 mmHg 82%
    06:00 +13°C° 0.1 mm 3 m/s 745 mmHg 82%
    07:00 +13°C° 0.1 mm 4 m/s 745 mmHg 79%
    08:00 +14°C° 0.1 mm 4 m/s 745 mmHg 76%
    09:00 +14°C° 0.1 mm 4 m/s 745 mmHg 73%
    10:00 +14°C° 0.1 mm 3 m/s 746 mmHg 73%
    11:00 +14°C° 0.1 mm 3 m/s 746 mmHg 73%
    12:00 +14°C° 0.1 mm 3 m/s 746 mmHg 73%
    13:00 +14°C° 0.1 mm 3 m/s 746 mmHg 73%
    14:00 +14°C° 0.1 mm 4 m/s 746 mmHg 73%
    15:00 +14°C° 0.1 mm 4 m/s 745 mmHg 73%
    16:00 +14°C° 0.1 mm 4 m/s 746 mmHg 74%
    17:00 +14°C° 0.1 mm 4 m/s 746 mmHg 75%
    18:00 +14°C° 0.1 mm 4 m/s 746 mmHg 76%
    19:00 +13°C° 0.2 mm 4 m/s 746 mmHg 78%
    20:00 +12°C° 0.2 mm 3 m/s 747 mmHg 81%
    21:00 +11°C° 0.2 mm 3 m/s 747 mmHg 83%
    22:00 +11°C° 0 mm 3 m/s 747 mmHg 83%
    23:00 +10°C° 0 mm 3 m/s 747 mmHg 82%

    Après-demain, 5 Juin, Vendredi

    Heure Température Précipitation Vent Pression Humidité
    00:00 +10°C° 0 mm 3 m/s 747 mmHg 82%
    01:00 +10°C° 0 mm 3 m/s 747 mmHg 82%
    02:00 +9°C° 0 mm 3 m/s 747 mmHg 83%
    03:00 +9°C° 0 mm 3 m/s 746 mmHg 83%
    04:00 +8°C° 0.2 mm 4 m/s 746 mmHg 84%
    05:00 +9°C° 0.2 mm 5 m/s 746 mmHg 85%
    06:00 +9°C° 0.2 mm 5 m/s 745 mmHg 86%
    07:00 +10°C° 0.5 mm 6 m/s 745 mmHg 87%
    08:00 +10°C° 0.5 mm 6 m/s 745 mmHg 88%
    09:00 +11°C° 0.5 mm 6 m/s 745 mmHg 89%
    10:00 +13°C° 0.3 mm 6 m/s 745 mmHg 80%
    11:00 +15°C° 0.3 mm 6 m/s 745 mmHg 71%
    12:00 +17°C° 0.3 mm 7 m/s 745 mmHg 62%
    13:00 +16°C° 0.1 mm 7 m/s 745 mmHg 61%
    14:00 +16°C° 0.1 mm 7 m/s 745 mmHg 60%
    15:00 +16°C° 0.1 mm 7 m/s 745 mmHg 59%
    16:00 +15°C° 0.3 mm 6 m/s 745 mmHg 66%
    17:00 +13°C° 0.3 mm 5 m/s 745 mmHg 74%
    18:00 +12°C° 0.3 mm 4 m/s 745 mmHg 81%
    19:00 +12°C° 0.2 mm 4 m/s 745 mmHg 81%
    20:00 +11°C° 0.2 mm 4 m/s 746 mmHg 82%
    21:00 +11°C° 0.2 mm 3 m/s 746 mmHg 83%
    22:00 +11°C° 0 mm 4 m/s 747 mmHg 83%
    23:00 +11°C° 0 mm 4 m/s 747 mmHg 82%

    6 Juin, Samedi

    Heure Température Précipitation Vent Pression Humidité
    00:00 +10°C° 0 mm 4 m/s 747 mmHg 82%
    01:00 +10°C° 0 mm 4 m/s 747 mmHg 83%
    02:00 +9°C° 0 mm 3 m/s 747 mmHg 83%
    03:00 +9°C° 0 mm 3 m/s 747 mmHg 83%
    04:00 +9°C° 0 mm 3 m/s 747 mmHg 81%
    05:00 +10°C° 0 mm 4 m/s 748 mmHg 80%
    06:00 +10°C° 0 mm 4 m/s 748 mmHg 78%
    07:00 +12°C° 0.1 mm 4 m/s 748 mmHg 74%
    08:00 +13°C° 0.1 mm 5 m/s 748 mmHg 69%
    09:00 +14°C° 0.1 mm 5 m/s 748 mmHg 65%
    10:00 +15°C° 0.1 mm 6 m/s 748 mmHg 59%
    11:00 +16°C° 0.1 mm 6 m/s 748 mmHg 52%
    12:00 +17°C° 0.1 mm 7 m/s 748 mmHg 46%
    13:00 +16°C° 0 mm 7 m/s 748 mmHg 47%
    14:00 +16°C° 0 mm 7 m/s 748 mmHg 48%
    15:00 +16°C° 0 mm 6 m/s 748 mmHg 49%
    16:00 +15°C° 0 mm 6 m/s 749 mmHg 51%
    17:00 +14°C° 0 mm 6 m/s 749 mmHg 53%
    18:00 +14°C° 0 mm 5 m/s 749 mmHg 55%
    19:00 +12°C° 0 mm 5 m/s 750 mmHg 58%
    20:00 +11°C° 0 mm 4 m/s 750 mmHg 62%
    21:00 +10°C° 0 mm 4 m/s 750 mmHg 65%
    22:00 +10°C° 0 mm 4 m/s 751 mmHg 67%
    23:00 +8°C° 0 mm 4 m/s 751 mmHg 69%

    7 Juin, Dimanche

    Heure Température Précipitation Vent Pression Humidité
    00:00 +8°C° 0 mm 4 m/s 751 mmHg 71%
    01:00 +7°C° 0 mm 4 m/s 751 mmHg 73%
    02:00 +7°C° 0 mm 4 m/s 751 mmHg 74%
    03:00 +7°C° 0 mm 4 m/s 751 mmHg 75%
    04:00 +8°C° 0 mm 4 m/s 751 mmHg 74%
    05:00 +8°C° 0 mm 4 m/s 751 mmHg 73%
    06:00 +10°C° 0 mm 4 m/s 752 mmHg 72%
    07:00 +11°C° 0 mm 4 m/s 752 mmHg 67%
    08:00 +13°C° 0 mm 5 m/s 752 mmHg 63%
    09:00 +14°C° 0 mm 5 m/s 752 mmHg 58%
    10:00 +15°C° 0.2 mm 5 m/s 752 mmHg 57%
    11:00 +16°C° 0.2 mm 5 m/s 752 mmHg 56%
    12:00 +17°C° 0.2 mm 5 m/s 752 mmHg 55%
    13:00 +17°C° 0.7 mm 5 m/s 752 mmHg 58%
    14:00 +17°C° 0.7 mm 5 m/s 752 mmHg 60%
    15:00 +17°C° 0.7 mm 5 m/s 752 mmHg 62%
    16:00 +17°C° 0.8 mm 4 m/s 752 mmHg 65%
    17:00 +17°C° 0.8 mm 4 m/s 753 mmHg 68%
    18:00 +16°C° 0.8 mm 3 m/s 753 mmHg 71%
    19:00 +14°C° 0.2 mm 3 m/s 753 mmHg 75%
    20:00 +13°C° 0.2 mm 3 m/s 754 mmHg 78%
    21:00 +13°C° 0.2 mm 2 m/s 754 mmHg 81%
    22:00 +13°C° 0 mm 2 m/s 754 mmHg 82%
    23:00 +12°C° 0 mm 2 m/s 754 mmHg 83%

    8 Juin, Lundi

    Heure Température Précipitation Vent Pression Humidité
    00:00 +12°C° 0 mm 2 m/s 754 mmHg 84%
    01:00 +12°C° 0 mm 2 m/s 754 mmHg 84%
    02:00 +12°C° 0 mm 2 m/s 754 mmHg 85%
    03:00 +12°C° 0 mm 2 m/s 754 mmHg 86%
    04:00 +12°C° 0.2 mm 2 m/s 754 mmHg 87%
    05:00 +12°C° 0.2 mm 2 m/s 754 mmHg 87%
    06:00 +12°C° 0.2 mm 3 m/s 755 mmHg 88%
    07:00 +12°C° 0.1 mm 3 m/s 755 mmHg 87%
    08:00 +12°C° 0.1 mm 3 m/s 755 mmHg 86%
    09:00 +13°C° 0.1 mm 3 m/s 755 mmHg 85%
    10:00 +14°C° 0.2 mm 3 m/s 756 mmHg 83%
    11:00 +14°C° 0.2 mm 3 m/s 756 mmHg 80%
    12:00 +16°C° 0.2 mm 3 m/s 756 mmHg 77%
    13:00 +17°C° 0.4 mm 4 m/s 756 mmHg 74%
    14:00 +17°C° 0.4 mm 4 m/s 756 mmHg 70%
    15:00 +17°C° 0.4 mm 5 m/s 756 mmHg 67%
    16:00 +17°C° 0 mm 4 m/s 756 mmHg 67%
    17:00 +17°C° 0 mm 4 m/s 756 mmHg 67%
    18:00 +17°C° 0 mm 4 m/s 757 mmHg 67%
    19:00 +16°C° 0 mm 3 m/s 757 mmHg 71%
    20:00 +13°C° 0 mm 3 m/s 758 mmHg 74%
    21:00 +12°C° 0 mm 3 m/s 758 mmHg 78%
    22:00 +13°C° 0 mm 2 m/s 758 mmHg 80%
    23:00 +12°C° 0 mm 2 m/s 759 mmHg 82%
    Voir plus